CDT,Max TemperatureF,Mean TemperatureF,Min TemperatureF,Max Dew PointF,MeanDew PointF,Min DewpointF,Max Humidity, Mean Humidity, Min Humidity, Max Sea Level PressureIn, Mean Sea Level PressureIn, Min Sea Level PressureIn, Max VisibilityMiles, Mean VisibilityMiles, Min VisibilityMiles, Max Wind SpeedMPH, Mean Wind SpeedMPH, Max Gust SpeedMPH,PrecipitationIn, CloudCover, Events, WindDirDegrees
2013-10-1,77,66,55,52,37,21,77,40,14,30.00,29.89,29.68,10,10,10,14,9,16,0.00,0,,313
2013-10-2,82,66,51,61,46,30,73,47,28,30.01,29.91,29.79,10,10,10,18,8,24,0.00,2,,133
2013-10-3,71,64,57,61,57,54,94,78,60,29.88,29.82,29.79,10,10,4,18,5,23,0.00,5,Rain,37
2013-10-4,69,60,50,63,57,45,94,83,73,29.87,29.79,29.64,10,8,2,16,11,23,0.31,7,Rain,84
2013-10-5,51,44,37,39,34,30,87,67,47,29.84,29.77,29.72,10,10,10,25,13,30,0.00,4,Rain,214
2013-10-6,51,45,39,46,41,34,93,85,66,29.98,29.83,29.73,10,8,1,18,7,25,0.32,6,Rain,320
2013-10-7,73,55,37,45,39,36,93,60,25,30.02,29.98,29.94,10,10,10,10,7,16,0.00,0,,247
2013-10-8,77,64,51,43,40,37,67,44,24,29.94,29.88,29.80,10,10,10,28,13,34,0.00,0,,184
2013-10-9,78,64,51,48,45,41,77,52,26,30.00,29.96,29.92,10,10,10,17,11,24,0.00,0,,167
2013-10-10,80,66,53,50,47,43,77,52,26,29.99,29.89,29.78,10,10,7,25,10,32,0.00,0,,158
2013-10-11,77,64,50,55,49,36,82,62,22,29.84,29.68,29.55,10,10,7,30,13,39,0.01,2,Rain,183
2013-10-12,62,52,42,41,29,18,76,46,18,30.26,30.06,29.84,10,10,10,23,12,30,0.00,0,,282
2013-10-13,66,50,35,32,28,23,81,45,21,30.42,30.34,30.27,10,10,10,9,3,,0.00,0,,126
2013-10-14,53,48,44,50,40,30,93,75,50,30.32,30.05,29.68,10,9,2,17,8,25,1.92,7,Rain,119
2013-10-15,57,50,42,54,43,37,94,87,76,29.99,29.81,29.65,10,7,2,23,16,30,0.04,8,Rain,279
2013-10-16,53,46,39,39,35,30,93,70,41,30.04,29.98,29.93,10,10,7,13,9,20,0.00,3,,306
2013-10-17,57,45,33,43,34,28,87,73,51,30.01,29.90,29.85,10,10,4,21,5,29,0.00,3,,296
2013-10-18,53,40,28,36,29,19,93,66,26,30.08,30.01,29.93,10,10,10,17,9,24,0.00,4,Rain,286
2013-10-19,55,44,33,37,33,30,87,70,38,29.92,29.83,29.78,10,10,10,21,7,28,0.02,6,Rain,268
2013-10-20,57,47,37,41,34,28,76,64,48,29.99,29.78,29.65,10,10,10,29,10,37,0.00,7,,288
2013-10-21,50,42,33,32,27,21,87,61,32,30.04,29.99,29.92,10,10,10,17,6,24,0.00,6,Rain,294
2013-10-22,42,38,33,34,30,27,93,76,61,30.09,30.00,29.89,10,9,2,10,5,16,0.07,8,Rain-Snow,8
2013-10-23,39,32,26,34,29,25,93,84,65,30.18,30.09,30.05,10,8,1,10,3,16,0.07,6,Rain-Snow,325
2013-10-24,48,38,28,30,26,23,93,68,37,30.35,30.29,30.18,10,10,10,16,7,24,0.00,2,,310
2013-10-25,60,43,26,36,30,21,86,62,36,30.35,30.15,29.95,10,10,10,28,8,34,0.00,1,,208
2013-10-26,46,38,30,37,28,23,86,64,40,30.21,30.12,29.96,10,10,10,16,8,24,0.00,0,,318
2013-10-27,64,46,28,34,29,23,86,61,30,30.08,29.92,29.80,10,10,10,13,6,20,0.00,0,,204
2013-10-28,44,38,33,30,29,27,81,68,57,30.30,30.22,30.03,10,10,10,16,11,25,0.00,1,Rain,67
2013-10-29,46,42,37,45,38,30,93,85,75,30.25,30.09,29.99,10,6,1,14,9,21,0.50,8,Rain,86
2013-10-30,50,44,39,48,43,36,94,93,87,30.00,29.86,29.75,10,2,0,14,4,18,0.05,8,Fog-Rain,313
2013-10-31,44,38,32,39,35,30,100,86,71,29.74,29.57,29.48,10,8,0,15,6,,0.00,6,Fog,287